Time,TemperatureF,DewpointF,PressureIn,WindDirection,WindDirectionDegrees,WindSpeedMPH,WindSpeedGustMPH,Humidity,HourlyPrecipIn,Conditions,Clouds,dailyrainin,SoftwareType,DateUTC
2013-04-27 00:00:00,50.2,20.0,30.09,West,271,0.0,1.0,30,0.00,,,0.00,HR-IXPWINDi_r2_v1.2.,2013-04-27 06:00:00,
2013-04-27 00:05:00,49.5,20.1,30.10,ENE,73,1.0,2.0,31,0.00,,,0.00,HR-IXPWINDi_r2_v1.2.,2013-04-27 06:05:00,
2013-04-27 00:10:00,48.9,20.3,30.10,ENE,77,0.0,2.0,32,0.00,,,0.00,HR-IXPWINDi_r2_v1.2.,2013-04-27 06:10:00,
2013-04-27 00:16:00,48.5,20.0,30.10,NNW,335,1.0,2.0,32,0.00,,,0.00,HR-IXPWINDi_r2_v1.2.,2013-04-27 06:16:00,
2013-04-27 00:21:00,48.3,21.2,30.10,North,1,1.0,2.0,34,0.00,,,0.00,HR-IXPWINDi_r2_v1.2.,2013-04-27 06:21:00,
2013-04-27 00:26:00,47.5,22.5,30.10,NNE,26,1.0,2.0,37,0.00,,,0.00,HR-IXPWINDi_r2_v1.2.,2013-04-27 06:26:00,
2013-04-27 00:31:00,46.9,21.3,30.10,NNE,26,0.0,1.0,36,0.00,,,0.00,HR-IXPWINDi_r2_v1.2.,2013-04-27 06:31:00,
2013-04-27 00:36:00,46.6,23.0,30.10,NNE,26,0.0,1.0,39,0.00,,,0.00,HR-IXPWINDi_r2_v1.2.,2013-04-27 06:36:00,
2013-04-27 00:42:00,46.3,23.3,30.10,NNE,26,0.0,1.0,40,0.00,,,0.00,HR-IXPWINDi_r2_v1.2.,2013-04-27 06:42:00,
2013-04-27 00:47:00,46.0,21.8,30.10,NNE,27,0.0,1.0,38,0.00,,,0.00,HR-IXPWINDi_r2_v1.2.,2013-04-27 06:47:00,
2013-04-27 00:52:00,45.8,22.2,30.10,NNE,26,0.0,1.0,39,0.00,,,0.00,HR-IXPWINDi_r2_v1.2.,2013-04-27 06:52:00,
2013-04-27 00:57:00,45.5,24.3,30.11,NNE,25,0.0,1.0,43,0.00,,,0.00,HR-IXPWINDi_r2_v1.2.,2013-04-27 06:57:00,
2013-04-27 01:02:00,45.3,24.7,30.10,NNE,26,1.0,1.0,44,0.00,,,0.00,HR-IXPWINDi_r2_v1.2.,2013-04-27 07:02:00,
2013-04-27 01:07:00,45.0,23.8,30.11,NNE,26,0.0,1.0,43,0.00,,,0.00,HR-IXPWINDi_r2_v1.2.,2013-04-27 07:07:00,
2013-04-27 01:13:00,44.7,23.6,30.11,NNE,25,0.0,1.0,43,0.00,,,0.00,HR-IXPWINDi_r2_v1.2.,2013-04-27 07:13:00,
2013-04-27 01:18:00,44.5,23.4,30.11,NNW,345,0.0,1.0,43,0.00,,,0.00,HR-IXPWINDi_r2_v1.2.,2013-04-27 07:18:00,
2013-04-27 01:23:00,44.2,23.7,30.11,NNW,345,0.0,1.0,44,0.00,,,0.00,HR-IXPWINDi_r2_v1.2.,2013-04-27 07:23:00,
2013-04-27 01:28:00,44.0,22.9,30.11,NW,323,1.0,1.0,43,0.00,,,0.00,HR-IXPWINDi_r2_v1.2.,2013-04-27 07:28:00,
2013-04-27 01:34:00,43.7,23.7,30.11,NNE,15,1.0,2.0,45,0.00,,,0.00,HR-IXPWINDi_r2_v1.2.,2013-04-27 07:34:00,
2013-04-27 01:39:00,43.2,24.3,30.11,NE,44,2.0,3.0,47,0.00,,,0.00,HR-IXPWINDi_r2_v1.2.,2013-04-27 07:39:00,
2013-04-27 01:44:00,42.8,23.4,30.11,NE,40,0.0,3.0,46,0.00,,,0.00,HR-IXPWINDi_r2_v1.2.,2013-04-27 07:44:00,
2013-04-27 01:49:00,42.5,23.2,30.11,NE,40,0.0,3.0,46,0.00,,,0.00,HR-IXPWINDi_r2_v1.2.,2013-04-27 07:49:00,
2013-04-27 01:54:00,42.2,22.9,30.11,NE,40,1.0,1.0,46,0.00,,,0.00,HR-IXPWINDi_r2_v1.2.,2013-04-27 07:54:00,
2013-04-27 01:59:00,42.0,22.7,30.11,NE,40,0.0,2.0,46,0.00,,,0.00,HR-IXPWINDi_r2_v1.2.,2013-04-27 07:59:00,
2013-04-27 02:04:00,41.9,22.6,30.11,ESE,107,0.0,2.0,46,0.00,,,0.00,HR-IXPWINDi_r2_v1.2.,2013-04-27 08:04:00,
2013-04-27 02:09:00,41.7,22.9,30.11,ESE,108,1.0,1.0,47,0.00,,,0.00,HR-IXPWINDi_r2_v1.2.,2013-04-27 08:09:00,
2013-04-27 02:14:00,41.7,22.9,30.11,SE,129,0.0,1.0,47,0.00,,,0.00,HR-IXPWINDi_r2_v1.2.,2013-04-27 08:14:00,
2013-04-27 02:20:00,41.6,22.9,30.11,SSE,155,2.0,3.0,47,0.00,,,0.00,HR-IXPWINDi_r2_v1.2.,2013-04-27 08:20:00,
2013-04-27 02:25:00,42.4,24.1,30.11,SSE,148,3.0,5.0,48,0.00,,,0.00,HR-IXPWINDi_r2_v1.2.,2013-04-27 08:25:00,
2013-04-27 02:30:00,43.1,25.7,30.11,SSE,153,4.0,5.0,50,0.00,,,0.00,HR-IXPWINDi_r2_v1.2.,2013-04-27 08:30:00,
2013-04-27 02:36:00,43.5,26.6,30.11,SSE,148,1.0,4.0,51,0.00,,,0.00,HR-IXPWINDi_r2_v1.2.,2013-04-27 08:36:00,
2013-04-27 02:41:00,43.5,26.6,30.11,NE,43,2.0,4.0,51,0.00,,,0.00,HR-IXPWINDi_r2_v1.2.,2013-04-27 08:41:00,
2013-04-27 02:46:00,43.1,26.2,30.11,NNE,29,1.0,2.0,51,0.00,,,0.00,HR-IXPWINDi_r2_v1.2.,2013-04-27 08:46:00,
2013-04-27 02:51:00,42.3,25.0,30.11,NNW,329,1.0,3.0,50,0.00,,,0.00,HR-IXPWINDi_r2_v1.2.,2013-04-27 08:51:00,
2013-04-27 02:57:00,41.7,25.4,30.11,NNW,329,1.0,3.0,52,0.00,,,0.00,HR-IXPWINDi_r2_v1.2.,2013-04-27 08:57:00,
2013-04-27 03:02:00,41.8,25.9,30.11,NNW,327,2.0,3.0,53,0.00,,,0.00,HR-IXPWINDi_r2_v1.2.,2013-04-27 09:02:00,
2013-04-27 03:07:00,41.7,25.4,30.11,North,356,1.0,3.0,52,0.00,,,0.00,HR-IXPWINDi_r2_v1.2.,2013-04-27 09:07:00,
2013-04-27 03:12:00,41.2,25.4,30.11,North,8,0.0,3.0,53,0.00,,,0.00,HR-IXPWINDi_r2_v1.2.,2013-04-27 09:12:00,
2013-04-27 03:17:00,40.6,25.2,30.12,North,4,4.0,4.0,54,0.00,,,0.00,HR-IXPWINDi_r2_v1.2.,2013-04-27 09:17:00,
2013-04-27 03:22:00,40.2,24.4,30.13,NW,316,3.0,5.0,53,0.00,,,0.00,HR-IXPWINDi_r2_v1.2.,2013-04-27 09:22:00,
2013-04-27 03:27:00,40.0,24.7,30.14,NNE,16,1.0,5.0,54,0.00,,,0.00,HR-IXPWINDi_r2_v1.2.,2013-04-27 09:27:00,
2013-04-27 03:32:00,39.7,24.0,30.14,North,354,0.0,4.0,53,0.00,,,0.00,HR-IXPWINDi_r2_v1.2.,2013-04-27 09:32:00,
2013-04-27 03:37:00,39.5,24.2,30.14,East,101,2.0,2.0,54,0.00,,,0.00,HR-IXPWINDi_r2_v1.2.,2013-04-27 09:37:00,
2013-04-27 03:42:00,39.0,24.2,30.13,SE,142,1.0,3.0,55,0.00,,,0.00,HR-IXPWINDi_r2_v1.2.,2013-04-27 09:42:00,
2013-04-27 03:48:00,39.1,23.9,30.14,SSE,149,2.0,3.0,54,0.00,,,0.00,HR-IXPWINDi_r2_v1.2.,2013-04-27 09:48:00,
2013-04-27 03:53:00,39.6,23.4,30.13,SE,127,3.0,4.0,52,0.00,,,0.00,HR-IXPWINDi_r2_v1.2.,2013-04-27 09:53:00,
2013-04-27 03:58:00,40.6,21.9,30.13,East,96,4.0,6.0,47,0.00,,,0.00,HR-IXPWINDi_r2_v1.2.,2013-04-27 09:58:00,
2013-04-27 04:03:00,42.5,21.6,30.13,NE,51,2.0,6.0,43,0.00,,,0.00,HR-IXPWINDi_r2_v1.2.,2013-04-27 10:03:00,
2013-04-27 04:08:00,43.0,22.0,30.13,ESE,102,2.0,6.0,43,0.00,,,0.00,HR-IXPWINDi_r2_v1.2.,2013-04-27 10:08:00,
2013-04-27 04:14:00,43.4,21.3,30.13,SW,224,1.0,4.0,41,0.00,,,0.00,HR-IXPWINDi_r2_v1.2.,2013-04-27 10:14:00,
2013-04-27 04:19:00,43.3,21.2,30.13,WSW,237,1.0,3.0,41,0.00,,,0.00,HR-IXPWINDi_r2_v1.2.,2013-04-27 10:19:00,
2013-04-27 04:24:00,42.7,22.8,30.14,WSW,245,0.0,2.0,45,0.00,,,0.00,HR-IXPWINDi_r2_v1.2.,2013-04-27 10:24:00,
2013-04-27 04:29:00,42.0,24.2,30.13,ESE,113,2.0,2.0,49,0.00,,,0.00,HR-IXPWINDi_r2_v1.2.,2013-04-27 10:29:00,
2013-04-27 04:35:00,41.5,23.8,30.13,ESE,113,1.0,4.0,49,0.00,,,0.00,HR-IXPWINDi_r2_v1.2.,2013-04-27 10:35:00,
2013-04-27 04:40:00,41.3,24.5,30.14,NW,311,1.0,5.0,51,0.00,,,0.00,HR-IXPWINDi_r2_v1.2.,2013-04-27 10:40:00,
2013-04-27 04:45:00,40.7,24.9,30.13,East,86,3.0,5.0,53,0.00,,,0.00,HR-IXPWINDi_r2_v1.2.,2013-04-27 10:45:00,
2013-04-27 04:50:00,40.5,24.2,30.13,ENE,72,1.0,4.0,52,0.00,,,0.00,HR-IXPWINDi_r2_v1.2.,2013-04-27 10:50:00,
2013-04-27 04:55:00,40.3,24.5,30.13,North,352,1.0,3.0,53,0.00,,,0.00,HR-IXPWINDi_r2_v1.2.,2013-04-27 10:55:00,
2013-04-27 05:00:00,40.0,24.2,30.13,NNE,31,1.0,2.0,53,0.00,,,0.00,HR-IXPWINDi_r2_v1.2.,2013-04-27 11:00:00,
2013-04-27 05:06:00,39.8,23.6,30.13,NE,37,2.0,4.0,52,0.00,,,0.00,HR-IXPWINDi_r2_v1.2.,2013-04-27 11:06:00,
2013-04-27 05:11:00,39.6,23.9,30.13,WNW,295,0.0,4.0,53,0.00,,,0.00,HR-IXPWINDi_r2_v1.2.,2013-04-27 11:11:00,
2013-04-27 05:16:00,39.3,24.0,30.14,North,4,1.0,2.0,54,0.00,,,0.00,HR-IXPWINDi_r2_v1.2.,2013-04-27 11:16:00,
2013-04-27 05:21:00,39.1,23.9,30.14,WNW,293,1.0,2.0,54,0.00,,,0.00,HR-IXPWINDi_r2_v1.2.,2013-04-27 11:21:00,
2013-04-27 05:26:00,38.7,24.3,30.14,West,267,0.0,3.0,56,0.00,,,0.00,HR-IXPWINDi_r2_v1.2.,2013-04-27 11:26:00,
2013-04-27 05:31:00,37.9,24.0,30.15,West,274,0.0,3.0,57,0.00,,,0.00,HR-IXPWINDi_r2_v1.2.,2013-04-27 11:31:00,
2013-04-27 05:36:00,37.1,23.7,30.14,West,266,0.0,2.0,58,0.00,,,0.00,HR-IXPWINDi_r2_v1.2.,2013-04-27 11:36:00,
2013-04-27 05:42:00,37.1,23.7,30.14,SW,224,2.0,2.0,58,0.00,,,0.00,HR-IXPWINDi_r2_v1.2.,2013-04-27 11:42:00,
2013-04-27 05:47:00,37.1,23.7,30.14,SW,236,0.0,3.0,58,0.00,,,0.00,HR-IXPWINDi_r2_v1.2.,2013-04-27 11:47:00,
2013-04-27 05:52:00,37.3,24.7,30.14,WSW,248,0.0,3.0,60,0.00,,,0.00,HR-IXPWINDi_r2_v1.2.,2013-04-27 11:52:00,
2013-04-27 05:57:00,37.5,24.9,30.14,WSW,248,0.0,1.0,60,0.00,,,0.00,HR-IXPWINDi_r2_v1.2.,2013-04-27 11:57:00,
2013-04-27 06:03:00,37.5,25.3,30.14,NNW,348,1.0,1.0,61,0.00,,,0.00,HR-IXPWINDi_r2_v1.2.,2013-04-27 12:03:00,
2013-04-27 06:08:00,37.3,25.1,30.14,NNE,23,2.0,3.0,61,0.00,,,0.00,HR-IXPWINDi_r2_v1.2.,2013-04-27 12:08:00,
2013-04-27 06:13:00,37.0,25.2,30.14,NE,50,1.0,4.0,62,0.00,,,0.00,HR-IXPWINDi_r2_v1.2.,2013-04-27 12:13:00,
2013-04-27 06:18:00,36.9,25.1,30.15,NW,326,1.0,4.0,62,0.00,,,0.00,HR-IXPWINDi_r2_v1.2.,2013-04-27 12:18:00,
2013-04-27 06:24:00,36.5,24.7,30.15,WNW,302,2.0,4.0,62,0.00,,,0.00,HR-IXPWINDi_r2_v1.2.,2013-04-27 12:24:00,
2013-04-27 06:29:00,36.3,24.5,30.16,WNW,302,3.0,4.0,62,0.00,,,0.00,HR-IXPWINDi_r2_v1.2.,2013-04-27 12:29:00,
2013-04-27 06:34:00,36.5,24.3,30.16,WNW,285,3.0,4.0,61,0.00,,,0.00,HR-IXPWINDi_r2_v1.2.,2013-04-27 12:34:00,
2013-04-27 06:39:00,36.6,24.0,30.16,WSW,248,1.0,4.0,60,0.00,,,0.00,HR-IXPWINDi_r2_v1.2.,2013-04-27 12:39:00,
2013-04-27 06:44:00,36.8,24.2,30.16,WSW,242,2.0,3.0,60,0.00,,,0.00,HR-IXPWINDi_r2_v1.2.,2013-04-27 12:44:00,
2013-04-27 06:49:00,37.2,24.2,30.16,WSW,238,2.0,3.0,59,0.00,,,0.00,HR-IXPWINDi_r2_v1.2.,2013-04-27 12:49:00,
2013-04-27 06:54:00,37.1,24.9,30.17,WSW,237,1.0,3.0,61,0.00,,,0.00,HR-IXPWINDi_r2_v1.2.,2013-04-27 12:54:00,
2013-04-27 07:00:00,36.9,25.1,30.17,West,267,0.0,3.0,62,0.00,,,0.00,HR-IXPWINDi_r2_v1.2.,2013-04-27 13:00:00,
2013-04-27 07:05:00,37.2,25.0,30.17,West,269,0.0,2.0,61,0.00,,,0.00,HR-IXPWINDi_r2_v1.2.,2013-04-27 13:05:00,
2013-04-27 07:10:00,37.5,24.9,30.17,West,269,0.0,1.0,60,0.00,,,0.00,HR-IXPWINDi_r2_v1.2.,2013-04-27 13:10:00,
2013-04-27 07:15:00,38.0,24.9,30.17,West,269,0.0,0.0,59,0.00,,,0.00,HR-IXPWINDi_r2_v1.2.,2013-04-27 13:15:00,
2013-04-27 07:20:00,38.6,25.5,30.18,WNW,294,1.0,1.0,59,0.00,,,0.00,HR-IXPWINDi_r2_v1.2.,2013-04-27 13:20:00,
2013-04-27 07:25:00,38.9,25.4,30.18,WNW,292,0.0,1.0,58,0.00,,,0.00,HR-IXPWINDi_r2_v1.2.,2013-04-27 13:25:00,
2013-04-27 07:31:00,39.6,25.6,30.18,WNW,292,1.0,1.0,57,0.00,,,0.00,HR-IXPWINDi_r2_v1.2.,2013-04-27 13:31:00,
2013-04-27 07:36:00,41.2,25.4,30.18,WNW,293,0.0,1.0,53,0.00,,,0.00,HR-IXPWINDi_r2_v1.2.,2013-04-27 13:36:00,
2013-04-27 07:41:00,42.9,26.0,30.18,WNW,293,0.0,1.0,51,0.00,,,0.00,HR-IXPWINDi_r2_v1.2.,2013-04-27 13:41:00,
2013-04-27 07:48:00,43.4,25.0,30.18,WNW,293,0.0,1.0,48,0.00,,,0.00,HR-IXPWINDi_r2_v1.2.,2013-04-27 13:48:00,
2013-04-27 07:53:00,43.3,24.9,30.18,WNW,292,0.0,1.0,48,0.00,,,0.00,HR-IXPWINDi_r2_v1.2.,2013-04-27 13:53:00,
2013-04-27 07:58:00,44.8,25.8,30.18,NNE,27,0.0,1.0,47,0.00,,,0.00,HR-IXPWINDi_r2_v1.2.,2013-04-27 13:58:00,
2013-04-27 08:04:00,46.0,25.8,30.18,NW,305,1.0,2.0,45,0.00,,,0.00,HR-IXPWINDi_r2_v1.2.,2013-04-27 14:04:00,
2013-04-27 08:09:00,46.0,25.8,30.18,NE,53,1.0,2.0,45,0.00,,,0.00,HR-IXPWINDi_r2_v1.2.,2013-04-27 14:09:00,
2013-04-27 08:14:00,46.8,26.6,30.18,ENE,61,2.0,4.0,45,0.00,,,0.00,HR-IXPWINDi_r2_v1.2.,2013-04-27 14:14:00,
2013-04-27 08:19:00,47.9,26.5,30.17,NE,53,1.0,4.0,43,0.00,,,0.00,HR-IXPWINDi_r2_v1.2.,2013-04-27 14:19:00,
2013-04-27 08:24:00,49.1,27.5,30.18,NE,45,2.0,5.0,43,0.00,,,0.00,HR-IXPWINDi_r2_v1.2.,2013-04-27 14:24:00,
2013-04-27 08:29:00,50.1,27.9,30.18,NE,49,3.0,5.0,42,0.00,,,0.00,HR-IXPWINDi_r2_v1.2.,2013-04-27 14:29:00,
2013-04-27 08:35:00,51.2,27.7,30.18,ESE,107,0.0,5.0,40,0.00,,,0.00,HR-IXPWINDi_r2_v1.2.,2013-04-27 14:35:00,
2013-04-27 08:40:00,52.6,27.1,30.17,East,95,4.0,5.0,37,0.00,,,0.00,HR-IXPWINDi_r2_v1.2.,2013-04-27 14:40:00,
2013-04-27 08:45:00,53.8,23.9,30.18,NE,41,4.0,7.0,31,0.00,,,0.00,HR-IXPWINDi_r2_v1.2.,2013-04-27 14:45:00,
2013-04-27 08:50:00,54.3,25.1,30.18,ESE,122,1.0,7.0,32,0.00,,,0.00,HR-IXPWINDi_r2_v1.2.,2013-04-27 14:50:00,
2013-04-27 08:55:00,55.4,24.5,30.18,ESE,110,2.0,6.0,30,0.00,,,0.00,HR-IXPWINDi_r2_v1.2.,2013-04-27 14:55:00,
2013-04-27 09:01:00,55.9,24.1,30.18,East,97,5.0,6.0,29,0.00,,,0.00,HR-IXPWINDi_r2_v1.2.,2013-04-27 15:01:00,
2013-04-27 09:06:00,56.3,23.6,30.17,ENE,61,3.0,6.0,28,0.00,,,0.00,HR-IXPWINDi_r2_v1.2.,2013-04-27 15:06:00,
2013-04-27 09:11:00,56.6,23.0,30.18,ESE,103,7.0,10.0,27,0.00,,,0.00,HR-IXPWINDi_r2_v1.2.,2013-04-27 15:11:00,
2013-04-27 09:16:00,56.7,23.1,30.17,SSE,159,5.0,10.0,27,0.00,,,0.00,HR-IXPWINDi_r2_v1.2.,2013-04-27 15:16:00,
2013-04-27 09:22:00,57.1,22.5,30.17,SE,125,3.0,10.0,26,0.00,,,0.00,HR-IXPWINDi_r2_v1.2.,2013-04-27 15:22:00,
2013-04-27 09:27:00,57.5,22.9,30.17,ESE,114,3.0,10.0,26,0.00,,,0.00,HR-IXPWINDi_r2_v1.2.,2013-04-27 15:27:00,
2013-04-27 09:32:00,58.3,23.6,30.16,SE,139,9.0,10.0,26,0.00,,,0.00,HR-IXPWINDi_r2_v1.2.,2013-04-27 15:32:00,
2013-04-27 09:38:00,58.8,23.1,30.16,ESE,102,4.0,11.0,25,0.00,,,0.00,HR-IXPWINDi_r2_v1.2.,2013-04-27 15:38:00,
2013-04-27 09:43:00,59.1,23.3,30.16,East,79,2.0,11.0,25,0.00,,,0.00,HR-IXPWINDi_r2_v1.2.,2013-04-27 15:43:00,
2013-04-27 09:48:00,59.7,22.8,30.16,East,94,7.0,11.0,24,0.00,,,0.00,HR-IXPWINDi_r2_v1.2.,2013-04-27 15:48:00,
2013-04-27 09:53:00,59.7,22.8,30.16,SE,146,4.0,11.0,24,0.00,,,0.00,HR-IXPWINDi_r2_v1.2.,2013-04-27 15:53:00,
2013-04-27 09:58:00,60.2,23.3,30.16,East,94,9.0,9.0,24,0.00,,,0.00,HR-IXPWINDi_r2_v1.2.,2013-04-27 15:58:00,
2013-04-27 10:03:00,60.1,22.2,30.15,SSE,148,10.0,11.0,23,0.00,,,0.00,HR-IXPWINDi_r2_v1.2.,2013-04-27 16:03:00,
2013-04-27 10:09:00,60.3,23.4,30.15,ESE,106,2.0,11.0,24,0.00,,,0.00,HR-IXPWINDi_r2_v1.2.,2013-04-27 16:09:00,
2013-04-27 10:14:00,60.7,21.6,30.15,East,91,5.0,11.0,22,0.00,,,0.00,HR-IXPWINDi_r2_v1.2.,2013-04-27 16:14:00,
2013-04-27 10:19:00,60.6,22.6,30.15,East,98,4.0,11.0,23,0.00,,,0.00,HR-IXPWINDi_r2_v1.2.,2013-04-27 16:19:00,
2013-04-27 10:24:00,61.2,23.1,30.15,ESE,119,4.0,9.0,23,0.00,,,0.00,HR-IXPWINDi_r2_v1.2.,2013-04-27 16:24:00,
2013-04-27 10:29:00,61.9,21.5,30.15,East,81,6.0,8.0,21,0.00,,,0.00,HR-IXPWINDi_r2_v1.2.,2013-04-27 16:29:00,
2013-04-27 10:34:00,62.5,23.1,30.15,NE,56,3.0,8.0,22,0.00,,,0.00,HR-IXPWINDi_r2_v1.2.,2013-04-27 16:34:00,
2013-04-27 10:39:00,63.2,21.5,30.15,ESE,108,4.0,8.0,20,0.00,,,0.00,HR-IXPWINDi_r2_v1.2.,2013-04-27 16:39:00,
2013-04-27 10:44:00,63.5,22.9,30.15,ESE,122,5.0,9.0,21,0.00,,,0.00,HR-IXPWINDi_r2_v1.2.,2013-04-27 16:44:00,
2013-04-27 10:50:00,63.7,20.7,30.14,ESE,107,4.0,9.0,19,0.00,,,0.00,HR-IXPWINDi_r2_v1.2.,2013-04-27 16:50:00,
2013-04-27 10:55:00,63.8,22.0,30.14,East,86,3.0,8.0,20,0.00,,,0.00,HR-IXPWINDi_r2_v1.2.,2013-04-27 16:55:00,
2013-04-27 11:00:00,64.5,22.5,30.14,East,79,4.0,9.0,20,0.00,,,0.00,HR-IXPWINDi_r2_v1.2.,2013-04-27 17:00:00,
2013-04-27 11:05:00,65.0,23.0,30.14,East,99,1.0,10.0,20,0.00,,,0.00,HR-IXPWINDi_r2_v1.2.,2013-04-27 17:05:00,
2013-04-27 11:10:00,65.8,22.4,30.14,East,82,6.0,10.0,19,0.00,,,0.00,HR-IXPWINDi_r2_v1.2.,2013-04-27 17:10:00,
2013-04-27 11:16:00,65.9,21.2,30.14,East,96,5.0,7.0,18,0.00,,,0.00,HR-IXPWINDi_r2_v1.2.,2013-04-27 17:16:00,
2013-04-27 11:21:00,65.8,19.8,30.14,East,99,3.0,7.0,17,0.00,,,0.00,HR-IXPWINDi_r2_v1.2.,2013-04-27 17:21:00,
2013-04-27 11:26:00,66.4,22.9,30.13,NE,50,2.0,7.0,19,0.00,,,0.00,HR-IXPWINDi_r2_v1.2.,2013-04-27 17:26:00,
2013-04-27 11:31:00,67.4,21.1,30.13,ENE,67,1.0,7.0,17,0.00,,,0.00,HR-IXPWINDi_r2_v1.2.,2013-04-27 17:31:00,
2013-04-27 11:36:00,67.5,19.7,30.13,NNE,26,3.0,9.0,16,0.00,,,0.00,HR-IXPWINDi_r2_v1.2.,2013-04-27 17:36:00,
2013-04-27 11:41:00,67.9,18.6,30.13,SW,224,0.0,9.0,15,0.00,,,0.00,HR-IXPWINDi_r2_v1.2.,2013-04-27 17:41:00,
2013-04-27 11:46:00,69.0,21.0,30.13,ENE,63,3.0,6.0,16,0.00,,,0.00,HR-IXPWINDi_r2_v1.2.,2013-04-27 17:46:00,
2013-04-27 11:52:00,68.9,20.9,30.12,ENE,75,1.0,5.0,16,0.00,,,0.00,HR-IXPWINDi_r2_v1.2.,2013-04-27 17:52:00,
2013-04-27 11:57:00,69.4,21.3,30.12,ESE,110,4.0,6.0,16,0.00,,,0.00,HR-IXPWINDi_r2_v1.2.,2013-04-27 17:57:00,
2013-04-27 12:02:00,69.6,19.9,30.12,East,79,4.0,6.0,15,0.00,,,0.00,HR-IXPWINDi_r2_v1.2.,2013-04-27 18:02:00,
2013-04-27 12:07:00,69.4,18.2,30.12,ENE,64,0.0,6.0,14,0.00,,,0.00,HR-IXPWINDi_r2_v1.2.,2013-04-27 18:07:00,
2013-04-27 12:13:00,70.7,22.3,30.12,ENE,71,4.0,5.0,16,0.00,,,0.00,HR-IXPWINDi_r2_v1.2.,2013-04-27 18:13:00,
2013-04-27 12:18:00,70.0,20.2,30.11,East,82,1.0,7.0,15,0.00,,,0.00,HR-IXPWINDi_r2_v1.2.,2013-04-27 18:18:00,
2013-04-27 12:23:00,70.9,19.3,30.11,South,179,1.0,7.0,14,0.00,,,0.00,HR-IXPWINDi_r2_v1.2.,2013-04-27 18:23:00,
2013-04-27 12:28:00,71.3,21.3,30.11,ESE,122,4.0,5.0,15,0.00,,,0.00,HR-IXPWINDi_r2_v1.2.,2013-04-27 18:28:00,
2013-04-27 12:33:00,72.2,20.4,30.10,East,82,3.0,5.0,14,0.00,,,0.00,HR-IXPWINDi_r2_v1.2.,2013-04-27 18:33:00,
2013-04-27 12:38:00,72.3,18.7,30.10,NW,304,1.0,5.0,13,0.00,,,0.00,HR-IXPWINDi_r2_v1.2.,2013-04-27 18:38:00,
2013-04-27 12:43:00,71.9,18.4,30.10,ENE,58,3.0,6.0,13,0.00,,,0.00,HR-IXPWINDi_r2_v1.2.,2013-04-27 18:43:00,
2013-04-27 12:49:00,72.0,20.2,30.10,West,259,1.0,6.0,14,0.00,,,0.00,HR-IXPWINDi_r2_v1.2.,2013-04-27 18:49:00,
2013-04-27 12:54:00,72.9,15.3,30.09,SSW,204,5.0,6.0,11,0.00,,,0.00,HR-IXPWINDi_r2_v1.2.,2013-04-27 18:54:00,
2013-04-27 12:59:00,73.1,15.5,30.09,SSW,207,1.0,6.0,11,0.00,,,0.00,HR-IXPWINDi_r2_v1.2.,2013-04-27 18:59:00,
2013-04-27 13:04:00,73.6,15.9,30.08,WNW,291,3.0,6.0,11,0.00,,,0.00,HR-IXPWINDi_r2_v1.2.,2013-04-27 19:04:00,
2013-04-27 13:09:00,73.2,15.6,30.08,WNW,284,1.0,5.0,11,0.00,,,0.00,HR-IXPWINDi_r2_v1.2.,2013-04-27 19:09:00,
2013-04-27 13:14:00,73.4,15.7,30.08,WNW,294,2.0,8.0,11,0.00,,,0.00,HR-IXPWINDi_r2_v1.2.,2013-04-27 19:14:00,
2013-04-27 13:20:00,73.0,13.3,30.08,SSW,210,1.0,8.0,10,0.00,,,0.00,HR-IXPWINDi_r2_v1.2.,2013-04-27 19:20:00,
2013-04-27 13:25:00,73.6,11.3,30.07,WSW,243,1.0,10.0,9,0.00,,,0.00,HR-IXPWINDi_r2_v1.2.,2013-04-27 19:25:00,
2013-04-27 13:30:00,74.6,14.5,30.06,WNW,283,3.0,10.0,10,0.00,,,0.00,HR-IXPWINDi_r2_v1.2.,2013-04-27 19:30:00,
2013-04-27 13:35:00,74.4,11.9,30.06,West,278,2.0,10.0,9,0.00,,,0.00,HR-IXPWINDi_r2_v1.2.,2013-04-27 19:35:00,
2013-04-27 13:40:00,74.1,14.1,30.06,SW,224,3.0,9.0,10,0.00,,,0.00,HR-IXPWINDi_r2_v1.2.,2013-04-27 19:40:00,
2013-04-27 13:45:00,74.6,9.5,30.06,WNW,303,7.0,13.0,8,0.00,,,0.00,HR-IXPWINDi_r2_v1.2.,2013-04-27 19:45:00,
2013-04-27 13:51:00,74.2,9.2,30.05,West,274,5.0,13.0,8,0.00,,,0.00,HR-IXPWINDi_r2_v1.2.,2013-04-27 19:51:00,
2013-04-27 13:56:00,74.6,12.1,30.05,NNE,19,5.0,11.0,9,0.00,,,0.00,HR-IXPWINDi_r2_v1.2.,2013-04-27 19:56:00,
2013-04-27 14:01:00,75.1,12.5,30.05,WNW,300,3.0,7.0,9,0.00,,,0.00,HR-IXPWINDi_r2_v1.2.,2013-04-27 20:01:00,
2013-04-27 14:06:00,75.8,10.4,30.05,West,278,5.0,13.0,8,0.00,,,0.00,HR-IXPWINDi_r2_v1.2.,2013-04-27 20:06:00,
2013-04-27 14:11:00,75.8,13.0,30.04,NW,311,9.0,13.0,9,0.00,,,0.00,HR-IXPWINDi_r2_v1.2.,2013-04-27 20:11:00,
2013-04-27 14:17:00,74.9,9.7,30.04,NNE,23,6.0,13.0,8,0.00,,,0.00,HR-IXPWINDi_r2_v1.2.,2013-04-27 20:17:00,
2013-04-27 14:22:00,74.9,12.3,30.04,NE,40,1.0,13.0,9,0.00,,,0.00,HR-IXPWINDi_r2_v1.2.,2013-04-27 20:22:00,
2013-04-27 14:27:00,75.4,12.7,30.04,West,259,6.0,10.0,9,0.00,,,0.00,HR-IXPWINDi_r2_v1.2.,2013-04-27 20:27:00,
2013-04-27 14:32:00,76.1,10.6,30.03,SW,224,3.0,8.0,8,0.00,,,0.00,HR-IXPWINDi_r2_v1.2.,2013-04-27 20:32:00,
2013-04-27 14:37:00,76.4,13.4,30.03,NNW,335,4.0,9.0,9,0.00,,,0.00,HR-IXPWINDi_r2_v1.2.,2013-04-27 20:37:00,
2013-04-27 14:42:00,75.9,10.4,30.03,WNW,297,4.0,9.0,8,0.00,,,0.00,HR-IXPWINDi_r2_v1.2.,2013-04-27 20:42:00,
2013-04-27 14:47:00,75.9,13.1,30.03,ESE,109,0.0,8.0,9,0.00,,,0.00,HR-IXPWINDi_r2_v1.2.,2013-04-27 20:47:00,
2013-04-27 14:53:00,76.3,10.7,30.03,WNW,283,5.0,10.0,8,0.00,,,0.00,HR-IXPWINDi_r2_v1.2.,2013-04-27 20:53:00,
2013-04-27 14:58:00,75.9,13.1,30.03,NNW,329,2.0,10.0,9,0.00,,,0.00,HR-IXPWINDi_r2_v1.2.,2013-04-27 20:58:00,
2013-04-27 15:03:00,76.6,13.6,30.02,SW,229,2.0,8.0,9,0.00,,,0.00,HR-IXPWINDi_r2_v1.2.,2013-04-27 21:03:00,
2013-04-27 15:08:00,76.2,10.7,30.02,East,91,1.0,3.0,8,0.00,,,0.00,HR-IXPWINDi_r2_v1.2.,2013-04-27 21:08:00,
2013-04-27 15:13:00,76.8,11.1,30.01,WNW,287,3.0,6.0,8,0.00,,,0.00,HR-IXPWINDi_r2_v1.2.,2013-04-27 21:13:00,
2013-04-27 15:19:00,77.0,11.2,30.01,NW,314,3.0,9.0,8,0.00,,,0.00,HR-IXPWINDi_r2_v1.2.,2013-04-27 21:19:00,
2013-04-27 15:24:00,76.3,13.4,30.01,West,280,6.0,13.0,9,0.00,,,0.00,HR-IXPWINDi_r2_v1.2.,2013-04-27 21:24:00,
2013-04-27 15:29:00,75.9,10.4,30.01,WNW,288,4.0,13.0,8,0.00,,,0.00,HR-IXPWINDi_r2_v1.2.,2013-04-27 21:29:00,
2013-04-27 15:34:00,76.0,13.1,30.00,SW,228,5.0,9.0,9,0.00,,,0.00,HR-IXPWINDi_r2_v1.2.,2013-04-27 21:34:00,
2013-04-27 15:39:00,76.5,10.9,30.00,SSW,210,5.0,10.0,8,0.00,,,0.00,HR-IXPWINDi_r2_v1.2.,2013-04-27 21:39:00,
2013-04-27 15:45:00,76.6,8.0,30.00,SSE,149,1.0,10.0,7,0.00,,,0.00,HR-IXPWINDi_r2_v1.2.,2013-04-27 21:45:00,
2013-04-27 15:50:00,76.6,10.9,29.99,East,94,3.0,10.0,8,0.00,,,0.00,HR-IXPWINDi_r2_v1.2.,2013-04-27 21:50:00,
2013-04-27 15:55:00,77.1,8.3,29.99,SW,224,4.0,4.0,7,0.00,,,0.00,HR-IXPWINDi_r2_v1.2.,2013-04-27 21:55:00,
2013-04-27 16:00:00,77.5,8.6,29.99,WSW,251,2.0,6.0,7,0.00,,,0.00,HR-IXPWINDi_r2_v1.2.,2013-04-27 22:00:00,
2013-04-27 16:05:00,77.1,8.3,29.98,SE,143,1.0,6.0,7,0.00,,,0.00,HR-IXPWINDi_r2_v1.2.,2013-04-27 22:05:00,
2013-04-27 16:11:00,77.9,8.9,29.98,WSW,239,7.0,7.0,7,0.00,,,0.00,HR-IXPWINDi_r2_v1.2.,2013-04-27 22:11:00,
2013-04-27 16:16:00,78.7,9.5,29.98,WNW,290,9.0,9.0,7,0.00,,,0.00,HR-IXPWINDi_r2_v1.2.,2013-04-27 22:16:00,
2013-04-27 16:21:00,77.7,8.8,29.97,NW,309,4.0,10.0,7,0.00,,,0.00,HR-IXPWINDi_r2_v1.2.,2013-04-27 22:21:00,
2013-04-27 16:26:00,77.5,8.6,29.97,ESE,118,3.0,10.0,7,0.00,,,0.00,HR-IXPWINDi_r2_v1.2.,2013-04-27 22:26:00,
2013-04-27 16:31:00,77.9,8.9,29.97,East,86,1.0,7.0,7,0.00,,,0.00,HR-IXPWINDi_r2_v1.2.,2013-04-27 22:31:00,
2013-04-27 16:36:00,78.7,9.5,29.96,SSE,165,1.0,5.0,7,0.00,,,0.00,HR-IXPWINDi_r2_v1.2.,2013-04-27 22:36:00,
2013-04-27 16:41:00,79.0,6.3,29.96,WNW,286,9.0,12.0,6,0.00,,,0.00,HR-IXPWINDi_r2_v1.2.,2013-04-27 22:41:00,
2013-04-27 16:47:00,77.2,8.4,29.96,South,173,0.0,12.0,7,0.00,,,0.00,HR-IXPWINDi_r2_v1.2.,2013-04-27 22:47:00,
2013-04-27 16:53:00,77.1,8.3,29.96,WNW,290,5.0,11.0,7,0.00,,,0.00,HR-IXPWINDi_r2_v1.2.,2013-04-27 22:53:00,
2013-04-27 16:58:00,77.5,5.3,29.96,West,280,1.0,8.0,6,0.00,,,0.00,HR-IXPWINDi_r2_v1.2.,2013-04-27 22:58:00,
2013-04-27 17:03:00,77.7,8.8,29.95,WSW,243,4.0,8.0,7,0.00,,,0.00,HR-IXPWINDi_r2_v1.2.,2013-04-27 23:03:00,
2013-04-27 17:08:00,77.4,8.6,29.95,West,259,5.0,9.0,7,0.00,,,0.00,HR-IXPWINDi_r2_v1.2.,2013-04-27 23:08:00,
2013-04-27 17:13:00,77.1,8.3,29.95,SW,215,6.0,11.0,7,0.00,,,0.00,HR-IXPWINDi_r2_v1.2.,2013-04-27 23:13:00,
2013-04-27 17:19:00,78.1,9.1,29.95,West,276,2.0,11.0,7,0.00,,,0.00,HR-IXPWINDi_r2_v1.2.,2013-04-27 23:19:00,
2013-04-27 17:24:00,77.3,8.5,29.95,SW,219,4.0,14.0,7,0.00,,,0.00,HR-IXPWINDi_r2_v1.2.,2013-04-27 23:24:00,
2013-04-27 17:29:00,78.1,9.1,29.95,West,276,3.0,14.0,7,0.00,,,0.00,HR-IXPWINDi_r2_v1.2.,2013-04-27 23:29:00,
2013-04-27 17:34:00,77.6,8.7,29.95,NNW,327,3.0,7.0,7,0.00,,,0.00,HR-IXPWINDi_r2_v1.2.,2013-04-27 23:34:00,
2013-04-27 17:39:00,77.4,8.6,29.95,WNW,290,7.0,10.0,7,0.00,,,0.00,HR-IXPWINDi_r2_v1.2.,2013-04-27 23:39:00,
2013-04-27 17:44:00,77.2,8.4,29.94,WNW,284,4.0,10.0,7,0.00,,,0.00,HR-IXPWINDi_r2_v1.2.,2013-04-27 23:44:00,
2013-04-27 17:50:00,77.0,11.2,29.94,NW,308,3.0,7.0,8,0.00,,,0.00,HR-IXPWINDi_r2_v1.2.,2013-04-27 23:50:00,
2013-04-27 17:55:00,77.0,11.2,29.94,WSW,250,2.0,9.0,8,0.00,,,0.00,HR-IXPWINDi_r2_v1.2.,2013-04-27 23:55:00,
2013-04-27 18:00:00,77.5,8.6,29.94,WNW,285,5.0,9.0,7,0.00,,,0.00,HR-IXPWINDi_r2_v1.2.,2013-04-28 00:00:00,
2013-04-27 18:05:00,78.0,12.0,29.94,West,278,5.0,10.0,8,0.00,,,0.00,HR-IXPWINDi_r2_v1.2.,2013-04-28 00:05:00,
2013-04-27 18:10:00,77.4,11.5,29.94,West,274,4.0,10.0,8,0.00,,,0.00,HR-IXPWINDi_r2_v1.2.,2013-04-28 00:10:00,
2013-04-27 18:15:00,76.8,11.1,29.94,WNW,297,5.0,10.0,8,0.00,,,0.00,HR-IXPWINDi_r2_v1.2.,2013-04-28 00:15:00,
2013-04-27 18:20:00,77.0,11.2,29.94,West,278,1.0,10.0,8,0.00,,,0.00,HR-IXPWINDi_r2_v1.2.,2013-04-28 00:20:00,
2013-04-27 18:26:00,77.1,11.3,29.94,WNW,288,4.0,6.0,8,0.00,,,0.00,HR-IXPWINDi_r2_v1.2.,2013-04-28 00:26:00,
2013-04-27 18:31:00,77.2,11.4,29.94,West,266,7.0,9.0,8,0.00,,,0.00,HR-IXPWINDi_r2_v1.2.,2013-04-28 00:31:00,
2013-04-27 18:36:00,77.0,11.2,29.94,WNW,299,1.0,11.0,8,0.00,,,0.00,HR-IXPWINDi_r2_v1.2.,2013-04-28 00:36:00,
2013-04-27 18:41:00,76.7,11.0,29.93,WSW,240,5.0,11.0,8,0.00,,,0.00,HR-IXPWINDi_r2_v1.2.,2013-04-28 00:41:00,
2013-04-27 18:46:00,76.8,11.1,29.93,SW,219,3.0,10.0,8,0.00,,,0.00,HR-IXPWINDi_r2_v1.2.,2013-04-28 00:46:00,
2013-04-27 18:51:00,76.7,11.0,29.93,WNW,287,4.0,7.0,8,0.00,,,0.00,HR-IXPWINDi_r2_v1.2.,2013-04-28 00:51:00,
2013-04-27 18:57:00,76.3,10.7,29.93,WSW,238,2.0,10.0,8,0.00,,,0.00,HR-IXPWINDi_r2_v1.2.,2013-04-28 00:57:00,
2013-04-27 19:02:00,76.2,10.7,29.93,West,280,2.0,10.0,8,0.00,,,0.00,HR-IXPWINDi_r2_v1.2.,2013-04-28 01:02:00,
2013-04-27 19:08:00,76.1,10.6,29.93,West,270,4.0,9.0,8,0.00,,,0.00,HR-IXPWINDi_r2_v1.2.,2013-04-28 01:08:00,
2013-04-27 19:13:00,75.9,10.4,29.93,West,276,5.0,6.0,8,0.00,,,0.00,HR-IXPWINDi_r2_v1.2.,2013-04-28 01:13:00,
2013-04-27 19:18:00,75.8,13.0,29.93,West,264,2.0,7.0,9,0.00,,,0.00,HR-IXPWINDi_r2_v1.2.,2013-04-28 01:18:00,
2013-04-27 19:23:00,75.4,12.7,29.93,West,281,4.0,7.0,9,0.00,,,0.00,HR-IXPWINDi_r2_v1.2.,2013-04-28 01:23:00,
2013-04-27 19:29:00,75.1,12.5,29.92,WSW,243,2.0,6.0,9,0.00,,,0.00,HR-IXPWINDi_r2_v1.2.,2013-04-28 01:29:00,
2013-04-27 19:34:00,74.6,12.1,29.92,West,278,1.0,8.0,9,0.00,,,0.00,HR-IXPWINDi_r2_v1.2.,2013-04-28 01:34:00,
2013-04-27 19:39:00,74.2,14.2,29.92,West,276,3.0,8.0,10,0.00,,,0.00,HR-IXPWINDi_r2_v1.2.,2013-04-28 01:39:00,
2013-04-27 19:44:00,73.8,13.9,29.92,West,280,3.0,5.0,10,0.00,,,0.00,HR-IXPWINDi_r2_v1.2.,2013-04-28 01:44:00,
2013-04-27 19:49:00,73.4,13.6,29.92,WSW,255,2.0,4.0,10,0.00,,,0.00,HR-IXPWINDi_r2_v1.2.,2013-04-28 01:49:00,
2013-04-27 19:54:00,72.9,15.3,29.93,West,277,1.0,3.0,11,0.00,,,0.00,HR-IXPWINDi_r2_v1.2.,2013-04-28 01:54:00,
2013-04-27 20:00:00,72.4,15.0,29.93,West,276,1.0,3.0,11,0.00,,,0.00,HR-IXPWINDi_r2_v1.2.,2013-04-28 02:00:00,
2013-04-27 20:05:00,71.8,14.5,29.93,WNW,290,1.0,3.0,11,0.00,,,0.00,HR-IXPWINDi_r2_v1.2.,2013-04-28 02:05:00,
2013-04-27 20:10:00,70.9,15.8,29.93,NNW,348,1.0,2.0,12,0.00,,,0.00,HR-IXPWINDi_r2_v1.2.,2013-04-28 02:10:00,
2013-04-27 20:15:00,70.0,18.6,29.93,NNW,348,1.0,2.0,14,0.00,,,0.00,HR-IXPWINDi_r2_v1.2.,2013-04-28 02:15:00,
2013-04-27 20:20:00,68.9,19.4,29.93,North,349,1.0,1.0,15,0.00,,,0.00,HR-IXPWINDi_r2_v1.2.,2013-04-28 02:20:00,
2013-04-27 20:25:00,67.9,21.5,29.93,North,8,1.0,2.0,17,0.00,,,0.00,HR-IXPWINDi_r2_v1.2.,2013-04-28 02:25:00,
2013-04-27 20:30:00,66.8,23.2,29.93,NNE,15,1.0,2.0,19,0.00,,,0.00,HR-IXPWINDi_r2_v1.2.,2013-04-28 02:30:00,
2013-04-27 20:36:00,65.8,23.6,29.93,North,8,1.0,2.0,20,0.00,,,0.00,HR-IXPWINDi_r2_v1.2.,2013-04-28 02:36:00,
2013-04-27 20:41:00,64.9,24.0,29.93,NNE,26,1.0,2.0,21,0.00,,,0.00,HR-IXPWINDi_r2_v1.2.,2013-04-28 02:41:00,
2013-04-27 20:46:00,63.9,24.3,29.94,NNE,26,0.0,2.0,22,0.00,,,0.00,HR-IXPWINDi_r2_v1.2.,2013-04-28 02:46:00,
2013-04-27 20:51:00,63.2,22.6,29.94,ENE,71,1.0,2.0,21,0.00,,,0.00,HR-IXPWINDi_r2_v1.2.,2013-04-28 02:51:00,
2013-04-27 20:56:00,63.1,22.5,29.94,NE,41,2.0,3.0,21,0.00,,,0.00,HR-IXPWINDi_r2_v1.2.,2013-04-28 02:56:00,
2013-04-27 21:01:00,63.0,22.5,29.94,NE,41,2.0,3.0,21,0.00,,,0.00,HR-IXPWINDi_r2_v1.2.,2013-04-28 03:01:00,
2013-04-27 21:08:00,62.6,23.2,29.94,ENE,68,0.0,3.0,22,0.00,,,0.00,HR-IXPWINDi_r2_v1.2.,2013-04-28 03:08:00,
2013-04-27 21:13:00,62.0,23.8,29.94,ENE,74,1.0,2.0,23,0.00,,,0.00,HR-IXPWINDi_r2_v1.2.,2013-04-28 03:13:00,
2013-04-27 21:18:00,61.2,25.1,29.94,ENE,71,2.0,2.0,25,0.00,,,0.00,HR-IXPWINDi_r2_v1.2.,2013-04-28 03:18:00,
2013-04-27 21:23:00,60.5,25.4,29.95,ENE,67,1.0,2.0,26,0.00,,,0.00,HR-IXPWINDi_r2_v1.2.,2013-04-28 03:23:00,
2013-04-27 21:28:00,59.9,24.9,29.95,NE,49,1.0,2.0,26,0.00,,,0.00,HR-IXPWINDi_r2_v1.2.,2013-04-28 03:28:00,
2013-04-27 21:34:00,59.9,23.0,29.95,NNE,24,4.0,5.0,24,0.00,,,0.00,HR-IXPWINDi_r2_v1.2.,2013-04-28 03:34:00,
2013-04-27 21:39:00,59.8,21.9,29.95,NNE,16,4.0,5.0,23,0.00,,,0.00,HR-IXPWINDi_r2_v1.2.,2013-04-28 03:39:00,
2013-04-27 21:44:00,59.4,21.6,29.95,ENE,74,2.0,5.0,23,0.00,,,0.00,HR-IXPWINDi_r2_v1.2.,2013-04-28 03:44:00,
2013-04-27 21:49:00,58.8,22.1,29.95,East,79,1.0,4.0,24,0.00,,,0.00,HR-IXPWINDi_r2_v1.2.,2013-04-28 03:49:00,
2013-04-27 21:54:00,58.6,20.9,29.96,NE,39,2.0,3.0,23,0.00,,,0.00,HR-IXPWINDi_r2_v1.2.,2013-04-28 03:54:00,
2013-04-27 22:00:00,58.7,21.0,29.96,NE,39,0.0,3.0,23,0.00,,,0.00,HR-IXPWINDi_r2_v1.2.,2013-04-28 04:00:00,
2013-04-27 22:01:00,58.7,21.0,29.96,SSW,203,2.0,3.0,23,0.00,,,0.00,HR-IXPWINDi_r2_v1.2.,2013-04-28 04:01:00,
2013-04-27 22:06:00,58.5,20.8,29.96,SE,141,1.0,3.0,23,0.00,,,0.00,HR-IXPWINDi_r2_v1.2.,2013-04-28 04:06:00,
2013-04-27 22:11:00,58.2,22.5,29.96,SSE,147,1.0,3.0,25,0.00,,,0.00,HR-IXPWINDi_r2_v1.2.,2013-04-28 04:11:00,
2013-04-27 22:16:00,57.6,23.9,29.96,SE,146,0.0,2.0,27,0.00,,,0.00,HR-IXPWINDi_r2_v1.2.,2013-04-28 04:16:00,
2013-04-27 22:21:00,56.8,24.0,29.96,SE,146,0.0,1.0,28,0.00,,,0.00,HR-IXPWINDi_r2_v1.2.,2013-04-28 04:21:00,
2013-04-27 22:26:00,56.1,24.3,29.97,SE,146,0.0,1.0,29,0.00,,,0.00,HR-IXPWINDi_r2_v1.2.,2013-04-28 04:26:00,
2013-04-27 22:32:00,55.4,24.5,29.97,SE,146,0.0,1.0,30,0.00,,,0.00,HR-IXPWINDi_r2_v1.2.,2013-04-28 04:32:00,
2013-04-27 22:37:00,54.8,26.2,29.97,SE,146,0.0,0.0,33,0.00,,,0.00,HR-IXPWINDi_r2_v1.2.,2013-04-28 04:37:00,
2013-04-27 22:42:00,54.7,26.9,29.97,SE,146,0.0,1.0,34,0.00,,,0.00,HR-IXPWINDi_r2_v1.2.,2013-04-28 04:42:00,
2013-04-27 22:47:00,54.3,26.5,29.97,SE,146,0.0,1.0,34,0.00,,,0.00,HR-IXPWINDi_r2_v1.2.,2013-04-28 04:47:00,
2013-04-27 22:52:00,54.0,25.5,29.97,SE,146,0.0,0.0,33,0.00,,,0.00,HR-IXPWINDi_r2_v1.2.,2013-04-28 04:52:00,
2013-04-27 22:57:00,53.7,24.5,29.97,SE,146,0.0,0.0,32,0.00,,,0.00,HR-IXPWINDi_r2_v1.2.,2013-04-28 04:57:00,
2013-04-27 23:02:00,53.4,25.0,29.97,SSE,147,0.0,1.0,33,0.00,,,0.00,HR-IXPWINDi_r2_v1.2.,2013-04-28 05:02:00,
2013-04-27 23:08:00,53.2,24.8,29.97,SE,146,0.0,1.0,33,0.00,,,0.00,HR-IXPWINDi_r2_v1.2.,2013-04-28 05:08:00,
2013-04-27 23:13:00,52.8,25.2,29.97,SE,146,1.0,1.0,34,0.00,,,0.00,HR-IXPWINDi_r2_v1.2.,2013-04-28 05:13:00,
2013-04-27 23:18:00,52.5,25.6,29.97,SE,146,0.0,1.0,35,0.00,,,0.00,HR-IXPWINDi_r2_v1.2.,2013-04-28 05:18:00,
2013-04-27 23:23:00,52.1,25.9,29.97,SSE,147,0.0,1.0,36,0.00,,,0.00,HR-IXPWINDi_r2_v1.2.,2013-04-28 05:23:00,
2013-04-27 23:28:00,51.6,24.8,29.97,SE,146,0.0,1.0,35,0.00,,,0.00,HR-IXPWINDi_r2_v1.2.,2013-04-28 05:28:00,
2013-04-27 23:33:00,51.2,24.5,29.97,SE,146,0.0,0.0,35,0.00,,,0.00,HR-IXPWINDi_r2_v1.2.,2013-04-28 05:33:00,
2013-04-27 23:38:00,50.9,25.5,29.97,SE,146,0.0,1.0,37,0.00,,,0.00,HR-IXPWINDi_r2_v1.2.,2013-04-28 05:38:00,
2013-04-27 23:43:00,50.6,25.3,29.97,SE,146,0.0,1.0,37,0.00,,,0.00,HR-IXPWINDi_r2_v1.2.,2013-04-28 05:43:00,
2013-04-27 23:48:00,50.2,24.3,29.97,SE,146,0.0,1.0,36,0.00,,,0.00,HR-IXPWINDi_r2_v1.2.,2013-04-28 05:48:00,
2013-04-27 23:54:00,49.6,24.4,29.97,SE,146,0.0,0.0,37,0.00,,,0.00,HR-IXPWINDi_r2_v1.2.,2013-04-28 05:54:00,
2013-04-27 23:59:00,49.5,24.3,29.97,SE,146,0.0,1.0,37,0.00,,,0.00,HR-IXPWINDi_r2_v1.2.,2013-04-28 05:59:00,